Retour au catalogue

DELTA 1 DEB

ActifUNKNOWN
NORAD 10714·DEBRIS·🇺🇸 United States

Lancé Jul 29, 1976 depuis Vandenberg Space Force Base

Loading…

Prochains Passages (prochaines 24 heures)

TLE

FraisSource: Space-Track

Époque: Sep 13, 2026, 15:15 UTC

1 10714U 76077AK  26256.63600785  .00000588  00000-0  90893-2 0  9998
2 10714 103.3724 149.0572 0566989 206.5782 179.1143 11.54584439103257

Suivez DELTA 1 DEB en temps réel avec AllMySat

Download on the App Store